Location: Guadarram
(40.6734°N, 4.0889°W)
Time: 00:20:22
(UTC+00:00)

Daily predictions for brighter satellites

Satellite Brightness Start Highest point End
(mag) Time Altitude Azimuth Time Altitude Azimuth Time Altitude Azimuth
CENTAUR R/B 4.5 03:44:24 22° NE 03:44:24 22° NE 03:46:39 10° NE
BREEZE-M DEB (TANK) 4.1 04:21:04 47° ENE 04:21:04 47° ENE 04:29:32 10° ESE
Cosmos 2369 Rocket 3.0 04:34:16 44° NE 04:34:16 44° NE 04:38:07 10° NNE
Cosmos 2344 4.2 04:34:44 37° N 04:34:44 37° N 04:40:08 10° NNE
USA 238 DEB 4.5 04:39:33 37° N 04:39:33 37° N 04:43:55 10° NNE
USA 238 4.4 04:39:39 37° N 04:39:39 37° N 04:44:02 10° NNE
Meteor 1-26 Rocket 4.4 04:38:03 70° E 04:38:03 70° E 04:43:29 10° SSE
Cosmos 1656 Rocket 4.1 04:37:56 54° SE 04:38:21 55° ESE 04:43:39 10° NNE
USA 215 4.4 04:39:17 10° E 04:44:54 32° NNE 04:46:50 27° N
DELTA 2 R/B (1) 3.8 04:46:42 63° SE 04:46:42 63° SE 04:51:47 10° E
Cosmos 1943 Rocket 4.2 04:54:23 15° N 04:54:23 15° N 04:55:30 10° N
CZ-2C R/B 3.9 04:47:13 10° SE 04:52:14 38° ENE 04:57:11 10° N
Cosmos 1634 Rocket 3.9 04:58:14 20° N 05:02:51 88° E 05:09:04 10° S
SJ 16-02 3.8 05:06:47 10° SSE 05:10:14 23° E 05:13:41 10° NE
TSX-5 4.2 05:14:30 70° WSW 05:14:34 70° WSW 05:18:58 10° SSE
BREEZE-M DEB (TANK) 4.5 05:16:52 23° NNE 05:16:52 23° NNE 05:20:50 10° ENE
Cosmos 836 Rocket 4.3 05:21:10 43° NNW 05:22:53 80° WSW 05:28:05 10° SSE
Cosmos 921 Rocket 3.9 05:28:48 35° SW 05:28:48 35° SW 05:31:52 10° S
SKYMED 2 3.6 05:24:17 10° SSE 05:28:37 77° ENE 05:31:28 21° N
MOS 1-B Rocket 3.8 05:22:46 10° S 05:29:06 72° WSW 05:33:51 15° NNW
CENTAUR R/B 3.8 05:31:36 23° NNW 05:31:36 23° NNW 05:37:07 10° NNE
SJ-12 3.8 05:28:18 10° N 05:32:26 72° WNW 05:36:33 10° SSW
Cosmos 1503 Rocket 3.9 05:31:45 10° SSW 05:36:58 67° WNW 05:42:18 10° NNE
ATLAS 5 CENTAUR R/B 1.9 05:34:07 10° SSW 05:37:46 54° ESE 05:41:47 10° NE
H-2A R/B 4.3 05:39:17 10° ESE 05:42:44 24° ENE 05:46:13 10° NNE
Cosmos 1151 Rocket 3.2 05:42:26 41° NW 05:43:25 49° W 05:47:37 10° SSW
Cosmos 1777 Rocket 4.4 05:39:16 10° S 05:44:24 64° ESE 05:49:35 10° NNE
SL-8 R/B 3.7 05:45:02 35° NW 05:47:00 78° NNE 05:51:47 10° ESE
Cosmos 773 Rocket 4.2 05:45:06 10° NNW 05:50:19 69° ENE 05:55:27 10° SSE
Cosmos 1812 4.0 05:51:36 25° SW 05:51:36 25° SW 05:53:44 10° SSW
Cosmos 1340 Rocket 3.8 05:49:17 10° S 05:53:05 49° E 05:56:57 10° NNE
Meteor 2-6 Rocket 4.1 05:47:50 10° NNW 05:53:05 57° W 05:58:21 10° S
Okean 3 Rocket 3.9 05:49:14 10° SSW 05:53:33 43° WNW 05:57:54 10° N
Cosmos 1766 Rocket 4.1 05:52:31 10° SW 05:56:28 34° WNW 06:00:25 10° N
SL-27 R/B 2.8 05:54:53 16° N 05:57:40 66° ENE 06:01:09 10° SSE
DNEPR-1 R/B 4.2 05:55:56 25° NW 05:58:43 54° WSW 06:04:34 10° SSE
ATLAS 3B R/B 2.8 05:54:29 10° SSW 06:00:55 74° ESE 06:07:41 10° NE
DMSP B5D2-2 4.5 05:56:44 10° SSE 06:01:52 65° ENE 06:07:02 10° N
Cosmos 1833 4.3 05:57:46 17° NW 06:02:10 58° WSW 06:07:47 10° S
Envisat 3.4 06:00:30 10° N 06:05:12 39° WNW 06:09:52 10° SW
Cosmos 1328 Rocket 3.9 06:02:40 17° NNW 06:05:37 39° W 06:09:39 10° SSW
Cosmos 2098 Rocket 4.3 06:12:46 21° WNW 06:13:08 21° WNW 06:16:53 10° NNW
Cosmos 1174 3.1 06:11:54 10° SW 06:14:49 53° WNW 06:17:49 10° NNE
Cosmos 2297 Rocket 4.2 06:10:48 10° N 06:15:15 23° NE 06:19:43 10° ESE
Cosmos 1939 Rocket 3.6 06:12:12 10° NNE 06:16:04 55° E 06:19:51 10° S
COSMO-SKYMED 1 3.4 06:12:56 10° SSW 06:16:46 30° W 06:20:04 13° NW
Cosmos 2369 Rocket 3.5 06:16:09 18° WNW 06:17:08 18° NW 06:20:57 10° N
Meteor 1-10 Rocket 4.5 06:15:31 10° NNW 06:20:47 45° W 06:26:01 10° SSW
Meteor 1-31 Rocket 3.7 06:17:46 10° NNW 06:21:02 26° WNW 06:24:18 10° SW
CZ-4B R/B 3.5 06:20:55 10° SE 06:23:44 27° ENE 06:26:33 10° NNE
SL-4 R/B 3.2 06:20:49 10° SSW 06:24:05 38° SE 06:27:32 10° ENE
Meteor 2-15 Rocket 4.4 06:21:13 10° NNW 06:27:12 62° W 06:33:09 10° S
USA 215 3.3 06:20:50 10° SE 06:27:22 84° NE 06:33:55 10° NW
Cosmos 1408 Rocket 4.2 06:25:01 10° SW 06:28:53 32° WNW 06:32:47 10° NNW
IRAS Rocket 4.2 06:26:37 10° S 06:32:05 67° WSW 06:37:34 10° NNW
CZ-2C R/B 3.6 06:27:58 10° SSW 06:32:34 27° W 06:37:08 10° NW
DELTA 2 R/B (1) 3.6 06:27:29 12° W 06:32:39 80° S 06:38:12 10° E
FALCON 9 R/B 4.3 06:13:18 13° W 06:32:55 50° SSW 06:39:07 10° SE
Nadezhda 4 Rocket 4.2 06:29:56 10° SSW 06:35:52 50° WNW 06:41:55 10° N
Cosmos 1743 Rocket 3.7 06:34:24 10° SSW 06:38:38 49° W 06:42:53 10° N
NOAA 12 4.1 06:35:04 10° N 06:40:18 69° WNW 06:45:29 10° SSW
FengYun 1-2 T 4.2 06:36:15 10° NNE 06:41:46 84° WNW 06:47:15 10° SSW
Lacrosse 5 4.0 06:38:48 10° S 06:43:17 32° SE 06:47:49 10° ENE
Cosmos 2228 Rocket 3.1 06:39:05 10° N 06:43:37 86° W 06:48:09 10° S
Alouette 2 Rocket 3.2 06:43:37 10° NNW 06:47:11 58° W 06:50:50 10° S
CORIOLIS 4.4 06:42:22 10° NNE 06:47:50 79° ESE 06:53:16 10° S
SJ 16-02 2.1 06:44:45 10° SW 06:48:37 30° WNW 06:52:30 10° N
Cosmos 2227 Rocket 3.8 06:46:17 10° N 06:51:16 31° ENE 06:56:12 10° ESE
Cosmos 1428 Rocket 4.4 06:47:13 10° SSW 06:53:20 73° W 06:59:28 10° N
Cosmos 1092 Rocket 4.1 06:47:19 10° SSW 06:53:29 63° W 06:59:45 10° N
ADEOS 4.4 06:50:12 10° N 06:54:38 29° WNW 06:59:03 10° SW
Meteor 1-20 Rocket 4.3 06:49:21 10° SSW 06:54:48 57° WNW 07:00:25 10° N
Cosmos 1602 4.0 06:52:33 10° SSW 06:56:11 44° W 06:59:51 10° N
Cosmos 1656 4.1 06:53:14 10° SSW 06:58:37 69° ESE 07:04:01 10° NNE
Meteor 1-19 Rocket 4.2 06:55:46 10° N 07:01:21 83° W 07:06:46 10° S
